| time (UTC) | temp C | wind direction | speed KPH | gust KPH | rain 1hr cm | rain 24hr cm | rain mn cm | humidity % | barometer mb |
| 20260509074559 | 6 | 130 | 1.6 | 0.0 | 0.00 | 0.00 | 0.00 | 63 | 982.9 |
| 20260509073119 | 7 | 135 | 0.0 | 0.0 | 0.00 | 0.00 | 0.00 | 63 | 982.9 |
| 20260509071600 | 6 | 174 | 3.2 | 0.0 | 0.00 | 0.00 | 0.00 | 63 | 982.8 |
| 20260509070130 | 6 | 180 | 3.2 | 0.0 | 0.00 | 0.00 | 0.00 | 63 | 982.8 |
| 20260509064559 | 6 | 174 | 3.2 | 0.0 | 0.00 | 0.00 | 0.00 | 54 | 983.2 |
| 20260509063116 | 7 | 167 | 3.2 | 0.0 | 0.00 | 0.00 | 0.00 | 57 | 982.9 |
| 20260509061559 | 6 | 162 | 3.2 | 0.0 | 0.00 | 0.00 | 0.00 | 57 | 982.9 |
| 20260509060144 | 7 | 146 | 1.6 | 0.0 | 0.00 | 0.00 | 0.00 | 57 | 982.9 |
| 20260509054559 | 7 | 119 | 3.2 | 0.0 | 0.00 | 0.00 | 0.00 | 55 | 984.4 |
| 20260509053114 | 7 | 124 | 3.2 | 0.0 | 0.00 | 0.00 | 0.00 | 55 | 983.9 |
| 20260509051557 | 7 | 117 | 1.6 | 0.0 | 0.00 | 0.00 | 0.00 | 55 | 983.9 |
| 20260509050131 | 7 | 135 | 3.2 | 0.0 | 0.00 | 0.00 | 0.00 | 55 | 983.9 |
| 20260509044558 | 7 | 153 | 1.6 | 0.0 | 0.00 | 0.00 | 0.00 | 57 | 984.8 |
| 20260509043114 | 7 | 169 | 1.6 | 0.0 | 0.00 | 0.00 | 0.00 | 52 | 983.5 |
| 20260509041558 | 8 | 158 | 4.8 | 0.0 | 0.00 | 0.00 | 0.00 | 52 | 983.6 |
| 20260509040135 | 8 | 160 | 4.8 | 0.0 | 0.00 | 0.00 | 0.00 | 52 | 983.6 |
| 20260509034558 | 8 | 162 | 3.2 | 0.0 | 0.00 | 0.00 | 0.00 | 50 | 984.2 |
| 20260509033113 | 8 | 145 | 3.2 | 0.0 | 0.00 | 0.00 | 0.00 | 41 | 984.9 |
| 20260509031558 | 8 | 147 | 4.8 | 0.0 | 0.00 | 0.00 | 0.00 | 41 | 984.9 |
| 20260509030131 | 9 | 159 | 6.4 | 0.0 | 0.00 | 0.00 | 0.00 | 41 | 984.9 |
| 20260509024557 | 10 | 176 | 4.8 | 0.0 | 0.00 | 0.00 | 0.00 | 37 | 985.5 |
| 20260509023116 | 10 | 186 | 6.4 | 0.0 | 0.00 | 0.00 | 0.00 | 36 | 985.2 |
| 20260509021558 | 10 | 196 | 6.4 | 0.0 | 0.00 | 0.00 | 0.00 | 36 | 985.2 |
| 20260509020127 | 10 | 197 | 6.4 | 0.0 | 0.00 | 0.00 | 0.00 | 36 | 985.2 |
| 20260509014557 | 11 | 211 | 4.8 | 0.0 | 0.00 | 0.00 | 0.00 | 33 | 985.2 |
| 20260509013111 | 11 | 230 | 4.8 | 0.0 | 0.00 | 0.00 | 0.00 | 33 | 985.2 |
| 20260509011557 | 11 | 243 | 6.4 | 0.0 | 0.00 | 0.00 | 0.00 | 33 | 985.2 |
| 20260509010124 | 12 | 247 | 6.4 | 0.0 | 0.00 | 0.00 | 0.00 | 33 | 985.2 |
| 20260509004555 | 12 | 252 | 6.4 | 0.0 | 0.00 | 0.00 | 0.00 | 28 | 985.0 |
| 20260509003115 | 13 | 250 | 6.4 | 0.0 | 0.00 | 0.00 | 0.00 | 28 | 986.2 |
| 20260509001555 | 13 | 259 | 6.4 | 0.0 | 0.00 | 0.00 | 0.00 | 28 | 986.2 |
| 20260509000137 | 14 | 263 | 8.0 | 0.0 | 0.00 | 0.00 | 0.00 | 28 | 986.2 |
| 20260508234557 | 15 | 265 | 11.3 | 0.0 | 0.00 | 0.00 | 0.00 | 23 | 985.5 |
| 20260508233117 | 15 | 267 | 12.9 | 0.0 | 0.00 | 0.00 | 0.00 | 23 | 985.8 |
| 20260508231559 | 15 | 264 | 12.9 | 0.0 | 0.00 | 0.00 | 0.00 | 23 | 985.8 |
| 20260508230123 | 16 | 267 | 14.5 | 0.0 | 0.00 | 0.00 | 0.00 | 23 | 985.8 |
| 20260508224559 | 16 | 266 | 14.5 | 0.0 | 0.00 | 0.00 | 0.00 | 22 | 986.0 |
| 20260508223117 | 16 | 265 | 16.1 | 0.0 | 0.00 | 0.00 | 0.00 | 22 | 986.7 |
| 20260508221600 | 16 | 264 | 16.1 | 0.0 | 0.00 | 0.00 | 0.00 | 22 | 986.7 |
| 20260508220125 | 16 | 263 | 16.1 | 0.0 | 0.00 | 0.00 | 0.00 | 22 | 986.7 |
| 20260508214559 | 16 | 260 | 17.7 | 0.0 | 0.00 | 0.00 | 0.00 | 21 | 987.2 |
| 20260508213117 | 16 | 257 | 17.7 | 0.0 | 0.00 | 0.00 | 0.00 | 22 | 986.8 |
| 20260508211559 | 16 | 250 | 16.1 | 0.0 | 0.00 | 0.00 | 0.00 | 22 | 986.8 |
| 20260508210129 | 16 | 250 | 16.1 | 0.0 | 0.00 | 0.00 | 0.00 | 22 | 986.8 |
| 20260508204600 | 16 | 250 | 17.7 | 0.0 | 0.00 | 0.00 | 0.00 | 24 | 986.8 |
| 20260508203118 | 16 | 249 | 17.7 | 0.0 | 0.00 | 0.00 | 0.00 | 20 | 986.7 |
| 20260508201600 | 17 | 245 | 14.5 | 0.0 | 0.00 | 0.00 | 0.00 | 20 | 986.7 |
| 20260508200125 | 17 | 241 | 16.1 | 0.0 | 0.00 | 0.00 | 0.00 | 20 | 986.7 |
| 20260508194600 | 17 | 239 | 16.1 | 0.0 | 0.00 | 0.00 | 0.00 | 22 | 987.1 |
| 20260508193114 | 17 | 239 | 14.5 | 0.0 | 0.00 | 0.00 | 0.00 | 22 | 987.1 |
| 20260508191559 | 17 | 248 | 11.3 | 0.0 | 0.00 | 0.00 | 0.00 | 22 | 987.1 |
| 20260508190123 | 17 | 252 | 12.9 | 0.0 | 0.00 | 0.00 | 0.00 | 22 | 987.1 |
| 20260508184559 | 17 | 249 | 12.9 | 0.0 | 0.00 | 0.00 | 0.00 | 26 | 987.4 |
| 20260508183118 | 16 | 241 | 12.9 | 0.0 | 0.00 | 0.00 | 0.00 | 25 | 987.1 |
| 20260508181559 | 16 | 244 | 14.5 | 0.0 | 0.00 | 0.00 | 0.00 | 25 | 987.1 |
| 20260508180130 | 16 | 243 | 14.5 | 0.0 | 0.00 | 0.00 | 0.00 | 25 | 987.1 |
| 20260508174600 | 16 | 240 | 16.1 | 0.0 | 0.00 | 0.00 | 0.00 | 32 | 988.1 |
| 20260508173118 | 16 | 243 | 14.5 | 0.0 | 0.00 | 0.00 | 0.00 | 32 | 988.1 |
| 20260508171559 | 15 | 243 | 14.5 | 0.0 | 0.00 | 0.00 | 0.00 | 32 | 988.1 |
| 20260508170125 | 15 | 246 | 12.9 | 0.0 | 0.00 | 0.00 | 0.00 | 32 | 988.1 |
| 20260508164559 | 15 | 245 | 12.9 | 0.0 | 0.00 | 0.00 | 0.00 | 36 | 988.5 |
| 20260508163118 | 15 | 233 | 12.9 | 0.0 | 0.00 | 0.00 | 0.00 | 36 | 988.7 |
| 20260508161559 | 13 | 226 | 14.5 | 0.0 | 0.00 | 0.00 | 0.00 | 36 | 988.7 |
| 20260508160130 | 13 | 222 | 12.9 | 0.0 | 0.00 | 0.00 | 0.00 | 36 | 988.7 |
| 20260508154600 | 13 | 216 | 12.9 | 0.0 | 0.00 | 0.00 | 0.00 | 43 | 989.8 |
| 20260508153120 | 12 | 204 | 11.3 | 0.0 | 0.00 | 0.00 | 0.00 | 44 | 988.5 |
| 20260508151559 | 12 | 198 | 11.3 | 0.0 | 0.00 | 0.00 | 0.00 | 44 | 988.5 |
| 20260508150129 | 11 | 199 | 9.7 | 0.0 | 0.00 | 0.00 | 0.00 | 44 | 988.5 |
| 20260508144600 | 11 | 198 | 8.0 | 0.0 | 0.00 | 0.00 | 0.00 | 49 | 988.9 |
| 20260508143117 | 10 | 201 | 8.0 | 0.0 | 0.00 | 0.00 | 0.00 | 66 | 989.1 |
| 20260508141600 | 10 | 200 | 6.4 | 0.0 | 0.00 | 0.00 | 0.00 | 66 | 989.1 |
| 20260508140138 | 9 | 196 | 6.4 | 0.0 | 0.00 | 0.00 | 0.00 | 65 | 988.9 |
| 20260508134559 | 8 | 190 | 6.4 | 0.0 | 0.00 | 0.00 | 0.00 | 77 | 988.7 |
| 20260508133114 | 8 | 197 | 6.4 | 0.0 | 0.00 | 0.00 | 0.00 | 77 | 988.7 |
| 20260508131559 | 7 | 194 | 6.4 | 0.0 | 0.00 | 0.00 | 0.00 | 77 | 988.7 |
| 20260508130133 | 6 | 186 | 6.4 | 0.0 | 0.00 | 0.00 | 0.00 | 77 | 988.7 |
| 20260508124600 | 5 | 180 | 4.8 | 0.0 | 0.00 | 0.00 | 0.00 | 88 | 988.2 |
| 20260508123118 | 5 | 190 | 3.2 | 0.0 | 0.00 | 0.00 | 0.00 | 84 | 988.6 |
| 20260508121559 | 4 | 180 | 1.6 | 0.0 | 0.00 | 0.00 | 0.00 | 84 | 988.6 |
| 20260508120146 | 3 | 135 | 0.0 | 0.0 | 0.00 | 0.00 | 0.00 | 84 | 988.6 |
| 20260508114559 | 2 | 90 | 0.0 | 0.0 | 0.00 | 0.00 | 0.00 | 85 | 988.1 |
| 20260508113121 | 2 | 124 | 0.0 | 0.0 | 0.00 | 0.00 | 0.00 | 82 | 988.9 |
| 20260508111559 | 2 | 149 | 1.6 | 0.0 | 0.00 | 0.00 | 0.00 | 82 | 988.9 |
| 20260508110125 | 2 | 157 | 1.6 | 0.0 | 0.00 | 0.00 | 0.00 | 82 | 988.9 |
| 20260508104601 | 1 | 135 | 0.0 | 0.0 | 0.00 | 0.00 | 0.00 | 81 | 988.2 |
| 20260508103119 | 2 | 90 | 0.0 | 0.0 | 0.00 | 0.00 | 0.00 | 80 | 989.0 |
| 20260508101602 | 2 | 117 | 0.0 | 0.0 | 0.00 | 0.00 | 0.00 | 80 | 989.1 |
| 20260508100126 | 2 | 124 | 0.0 | 0.0 | 0.00 | 0.00 | 0.00 | 80 | 989.1 |
| 20260508094600 | 2 | 104 | 0.0 | 0.0 | 0.00 | 0.00 | 0.00 | 80 | 988.3 |
| 20260508093115 | 2 | 90 | 0.0 | 0.0 | 0.00 | 0.00 | 0.00 | 78 | 989.2 |
| 20260508091601 | 2 | 135 | 0.0 | 0.0 | 0.00 | 0.00 | 0.00 | 78 | 989.2 |
| 20260508090130 | 3 | 130 | 1.6 | 0.0 | 0.00 | 0.00 | 0.00 | 78 | 989.2 |
| 20260508084601 | 3 | 98 | 1.6 | 0.0 | 0.00 | 0.00 | 0.00 | 79 | 988.7 |
| 20260508083119 | 3 | 81 | 1.6 | 0.0 | 0.00 | 0.00 | 0.00 | 79 | 988.4 |
| 20260508081600 | 3 | 164 | 1.6 | 0.0 | 0.00 | 0.00 | 0.00 | 79 | 988.4 |
| 20260508080132 | 3 | 172 | 1.6 | 0.0 | 0.00 | 0.00 | 0.00 | 79 | 988.4 |